Location: *
(42.3442°N, 9.2072°E)
Time: 02:53:52
(UTC+00:00)

Cosmos 1340 Rocket - Pass Details

Date: 09 April 2020
Orbit: 529 x 559 km, 81.2° (Epoch: 29 May)

Event Time Altitude Azimuth Distance (km) Brightness Sun altitude
Rises 19:03:40 0° 184° (S) 2,725 6.2 -12.3°
Reaches altitude 10° 19:05:50 10° 183° (S) 1,832 5.3 -12.7°
Maximum altitude 19:09:52 75° 98° (E) 578 2.7 -13.4°
Drops below altitude 10° 19:13:53 10° 13° (NNE) 1,832 5.6 -14.0°
Sets 19:16:04 0° 12° (NNE) 2,726 6.5 -14.4°
